Regional Weather Roundup
Issued by NWS

Home | Current Version | Previous Version | Graphics & Text | Print | Product List | Glossary On
Versions: 1 2 3 4 5 6 7 8 9 10 11 12 13 14 15 16 17 18 19 20 21 22 23 24 25 26 27 28
000
ASUS45 KBOU 292107
RWRCO

WEATHER ROUNDUP FOR COLORADO
NATIONAL WEATHER SERVICE DENVER/BOULDER CO
300 PM MDT WED MAR 29 2017

NOTE: "FAIR" INDICATES FEW OR NO CLOUDS BELOW 12000 FEET WITH NO
SIGNIFICANT WEATHER AND/OR OBSTRUCTIONS TO VISIBILITY.

COZ001>005-013-030-031-292200-
...NORTHWEST COLORADO...

CITY           SKY/WX    TMP DP  RH WIND       PRES   REMARKS
CRAIG          FAIR      51  28  41 SW9       30.11F
HAYDEN         PTSUNNY   46  25  42 W13       30.11F
MEEKER         PTSUNNY   49  29  46 VRB6      30.11F
MOUNT WERNER   NOT AVBL
STEAMBOAT SPGS PTSUNNY   46  29  50 SW7G16    30.10F
WALDEN         NOT AVBL
$$

COZ006>008-011-292200-
...WEST CENTRAL VALLEYS...

CITY           SKY/WX    TMP DP  RH WIND       PRES   REMARKS
GRAND JUNCTION FAIR      61  26  26 CALM      30.06F
MONTROSE       FAIR      54  27  35 NW6       30.09F
EAGLE          MOSUNNY   54  25  32 CALM      30.07F
RIFLE          FAIR      57  25  29 NW10G23   30.07F
DELTA          FAIR      63  27  25 W16G26    30.04F
NUCLA          FAIR      59  23  25 NW12G17   30.09F
$$

COZ017>023-064>068-292200-
...SOUTHWEST COLORADO...

CITY           SKY/WX    TMP DP  RH WIND       PRES   REMARKS
DURANGO        FAIR      59  25  27 SW9       29.96F
CORTEZ         FAIR      62  25  24 N16G24    30.01F
PAGOSA SPRINGS FAIR      56  16  21 N6        30.00S
TELLURIDE      FAIR      42  12  28 N5        30.14S
WOLF CREEK PAS FAIR      30  18  59 NW14G20   30.17S WCI  20
$$

COZ009-010-012-014-032>034-037-058>063-292200-
...CENTRAL COLORADO...

CITY           SKY/WX    TMP DP  RH WIND       PRES   REMARKS
ASPEN          FAIR      48  21  34 VRB3      30.06F
BUENA VISTA    FAIR      52   9  18 NW23G33   30.01F
COPPER MTN     NOT AVBL
BERTHOUD PASS  LGT SNOW  19   9  63 NW28G39   30.13R WCI   1
COTTONWOOD PAS FAIR      45  16  31 CALM      30.07F
GUNNISON       FAIR      50  15  24 NW13      30.05F
KREMMLING      FAIR      54  25  32 N16G22    30.07F
LEADVILLE      FAIR      38  12  34 N16G28    30.08F
MONARCH PASS   FAIR      28  19  69 NW3G17    30.24R
SALIDA         FAIR      57   6  13 N20G29    30.07S
SUNLIGHT       FAIR      32  23  69 W9        30.20F WCI  24
WILKERSON PASS FAIR      32  27  80 NE7       30.12S WCI  26
$$

COZ069>075-292200-
...SAN LUIS VALLEY/SANGRE DE CRISTO MOUNTAINS...

CITY           SKY/WX    TMP DP  RH WIND       PRES   REMARKS
ALAMOSA        FAIR      53  22  29 NW16G26   29.98F
LA VETA PASS   NOT AVBL
SAGUACHE       FAIR      54  19  26 N14G28    30.00F
$$

COZ035-036-038>040-292200-
...NORTHERN COLORADO FRONT RANGE...

CITY           SKY/WX    TMP DP  RH WIND       PRES   REMARKS
DENVER INTL AP FAIR      54  32  43 N20G25    29.99F
DMNS CITY PARK   N/A     55  29  36 N12G18    29.99S
AURORA         MOSUNNY   53  32  45 N22G28    30.00F
FRONT RANGE AP PTSUNNY   54  37  54 N16G29    30.00F
ERIE MUNI ARPT FAIR      58  28  31 N13G20      N/A
BOULDER MUN AP FAIR      55  30  38 N8        29.98F
CENTENNIAL     FAIR      51  31  46 N15G25    30.00F
BROOMFIELD     PTSUNNY   55  30  38 N14       30.01F
FORT COLLINS   FAIR      59  28  30 N21       29.98F
LONGMONT       FAIR      62  30  30 N10       30.00F
$$

COZ041-046-047-076>085-087-088-292200-
...PIKES PEAK/PALMER DIVIDE AND SOUTHERN FOOTHILLS...

CITY           SKY/WX    TMP DP  RH WIND       PRES   REMARKS
COLO. SPRINGS  FAIR      50  29  44 N28G35    29.99F
A. F. ACADEMY  SUNNY     47  29  49 N23G35    29.98F
SCHRIEVER AFB  FAIR      47  30  52 N29G37    29.98F
ELLICOTT       PTSUNNY  N/A N/A N/A N25G35    29.97F
FALCON         PTSUNNY   46  31  55 NW17G26   30.00F
FORT CARSON    SUNNY     54  27  36 N24G36    29.96F
LIMON          CLOUDY    44  37  76 N20G26    29.98S
MONUMENT HILL  PTSUNNY   43  32  65 N20G29    30.02F
TRINIDAD       CLOUDY    47  35  63 N17G26    30.00F
$$

COZ042>045-048>051-090-091-292200-
...NORTHEAST COLORADO...

CITY           SKY/WX    TMP DP  RH WIND       PRES   REMARKS
GREELEY ARPT   PTSUNNY   58  29  33 N17       29.98F
AKRON          PTSUNNY   48  35  60 N20G30    29.97F
BURLINGTON     CLOUDY    43  38  82 N21G30    29.94S
WRAY           NOT AVBL
STERLING       NOT AVBL
HOLYOKE        PTSUNNY   48  39  71 N17       29.96F
FORT MORGAN    CLOUDY    53  31  43 N17G28    29.99F
$$

COZ086-089-092>099-292200-
...SOUTHEAST COLORADO...

CITY           SKY/WX    TMP DP  RH WIND       PRES   REMARKS
PUEBLO         FAIR      57  33  40 NE29G36   29.96F
LA JUNTA       FAIR      52  36  54 N21       29.97F
LAMAR          CLOUDY    46  37  71 N18G25    29.95S
SPRINGFIELD      N/A     42  39  89 N29       29.94S
$$




USA.gov is the U.S. government's official web portal to all federal, state and local government web resources and services.